ATLAS CENTAUR 2 R/B 1 00694U 63047A 21021.61558004 .00000461 00000-0 44649-4 0 9996 2 00694 30.3598 129.5079 0585483 281.1461 72.3889 14.02742671867752 THOR AGENA D R/B 1 00733U 64002A 21021.47933721 .00000004 00000-0 19140-4 0 9990 2 00733 98.9935 287.2290 0033197 317.7911 42.0717 14.32423016970036 SL-3 R/B 1 00877U 64053B 21021.76637840 -.00000080 00000-0 90534-5 0 9992 2 00877 65.0780 50.9884 0079519 305.7543 53.6178 14.59414567993357 SL-8 R/B 1 02802U 67045B 21021.84904689 -.00000029 00000-0 -17347-6 0 9999 2 02802 74.0106 239.0796 0066878 336.4647 23.3452 14.43794212818706 SL-8 R/B 1 03230U 68040B 21021.75855611 .00000160 00000-0 20217-4 0 9993 2 03230 74.0366 131.1006 0028741 92.7350 267.7122 14.90716274810126 OAO 2 1 03597U 68110A 21021.69448233 .00000023 00000-0 11678-4 0 9997 2 03597 34.9933 267.2676 0006145 312.6404 47.3768 14.45870823747802 ISIS 1 1 03669U 69009A 21021.62818226 .00000022 00000-0 17781-4 0 9991 2 03669 88.4376 2.4538 1710394 266.8916 73.6023 11.29495512137019 SERT 2 1 04327U 70009A 21021.87033262 -.00000043 00000-0 -35121-5 0 9995 2 04327 99.1664 60.8804 0004052 282.9149 249.9860 13.58496111525587 SL-3 R/B 1 04814U 70113B 21021.80311680 .00001140 00000-0 31382-4 0 9999 2 04814 81.1407 254.3376 0022843 237.9948 121.9072 15.36018269736640 SL-3 R/B 1 05118U 71028B 21021.80104310 .00000347 00000-0 16759-4 0 9992 2 05118 81.2548 85.5367 0046601 190.6447 169.3800 15.14821183702872 ASTEX 1 1 05560U 71089A 21021.39429946 .00000053 00000-0 14523-4 0 9990 2 05560 92.7206 267.0900 0013953 277.9120 82.0500 14.48109633591062 SL-8 R/B 1 5730U 71119B 21021.84601225 .00001412 00000-0 92116-4 0 9999 2 5730 73.8956 328.4355 0688787 310.7760 43.5511 14.04774058390105 COSMOS 482 DESCENT CRAFT 1 06073U 72023E 21021.82599902 .00016425 54926-5 69205-4 0 9995 2 06073 52.0456 24.7955 1305382 237.4423 109.3815 13.19008797530908 OAO 3 (COPERNICUS) 1 06153U 72065A 21021.68844319 .00000023 00000-0 92944-5 0 9992 2 06153 35.0061 146.4884 0007096 342.8979 147.1707 14.57966255572552 ATLAS CENTAUR R/B 1 06155U 72065B 21021.81251586 .00000074 00000-0 15283-4 0 9993 2 06155 35.0050 54.0164 0037748 184.8006 175.2334 14.71639364564800 SL-8 R/B 1 07004U 73107B 21021.70619209 .00036929 22131-5 19277-3 0 9991 2 07004 73.9165 18.7932 0074383 269.0776 90.1927 15.76887782441495 SL-8 R/B 1 08459U 75112B 21021.74248614 .00000120 00000-0 49453-4 0 9996 2 08459 74.0596 219.3477 0015095 57.7306 302.5308 14.36828944362775 SL-3 R/B 1 10114U 77057B 21021.84524370 .00000327 00000-0 19430-4 0 9995 2 10114 97.3338 169.6863 0014950 51.0452 309.2112 15.17662520382890 SEASAT 1 1 10967U 78064A 21021.84967558 -.00000064 00000-0 21519-4 0 9999 2 10967 107.9989 167.3381 0001333 283.7080 76.3916 14.43856632236112 METEOR 1-29 1 11251U 79005A 21021.81938078 .00001370 00000-0 37187-4 0 9992 2 11251 97.6686 320.2828 0016754 64.9585 295.3397 15.39401257842121 SL-14 R/B 1 11267U 79011B 21021.54830060 .00000076 00000-0 54004-5 0 9998 2 11267 82.5238 68.4362 0017028 173.0425 187.1033 14.89000815249842 SL-8 R/B 1 11574U 79089B 21021.87872094 .00000000 00000-0 83672-5 0 9993 2 11574 74.0715 312.0886 0017121 243.6452 116.2946 14.40784828166299 SL-14 R/B 1 11672U 80005B 21021.74697154 .00000060 00000-0 38910-5 0 9991 2 11672 82.5156 278.4534 0015171 273.2440 86.7042 14.88027071197761 SL-8 R/B 1 12139U 81003B 21021.83718482 .00001873 00000-0 88397-4 0 9993 2 12139 82.9518 133.7495 0458220 249.9607 105.1725 14.57861612 38251 SL-3 R/B 1 12465U 81046B 21021.86173052 .00000279 00000-0 13470-4 0 9992 2 12465 81.2444 313.0479 0032824 244.7004 115.0823 15.14824080153349 METEOR PRIRODA 1 12585U 81065A 21021.42172303 .00000577 00000-0 28359-4 0 9999 2 12585 97.5644 16.9414 0015433 123.7079 236.5630 15.22020798156258 SL-3 R/B 1 12904U 81103B 21021.78597691 .00000132 00000-0 73597-5 0 9999 2 12904 81.1746 213.3978 0029398 58.6743 301.7352 15.05919061690410 SL-3 R/B 1 13068U 82013B 21021.86964294 .00000565 00000-0 35489-4 0 9995 2 13068 81.2050 160.8448 0021412 294.4492 65.4498 15.07558307121271 SL-3 R/B 1 13154U 82039B 21021.84228188 .00000216 00000-0 15840-4 0 9994 2 13154 81.1831 185.6001 0039480 331.3060 28.5986 14.98832479100362 SL-3 R/B 1 13403U 82079B 21021.81839535 .00000000 00000-0 -15459-5 0 9995 2 13403 81.1670 202.6868 0031529 262.1777 97.5867 15.07297987 94505 SL-3 R/B 1 13819U 83010B 21021.82021655 .00000030 00000-0 27286-6 0 9993 2 13819 81.1143 63.8532 0030680 271.9209 87.8505 15.15982857 72559 COSMOS 1455 1 14032U 83037A 21021.55920410 .00000577 00000-0 26205-4 0 9991 2 14032 82.5139 227.7736 0017764 32.6983 327.5346 15.18590116 60755 SL-3 R/B 1 14208U 83075B 21021.88497290 .00000427 00000-0 28795-4 0 9999 2 14208 97.4209 4.7127 0036930 274.8651 84.8363 15.11306175 45723 COSMOS 1500 1 14372U 83099A 21021.56667793 .00000810 00000-0 36990-4 0 9991 2 14372 82.5161 123.0825 0014803 185.8280 303.7429 15.19071689 36904 COSMOS 1536 1 14699U 84013A 21021.81021989 -.00000007 00000-0 -25130-5 0 9994 2 14699 82.5277 136.1252 0011543 245.1718 114.8309 15.05721954989713 COSMOS 1544 1 14819U 84027A 21021.84030114 .00001242 00000-0 43360-4 0 9990 2 14819 82.4842 143.6007 0014758 86.6849 273.6078 15.28491146 16191 SL-14 R/B 1 14820U 84027B 21021.75103176 .00000083 00000-0 70510-5 0 9991 2 14820 82.5420 197.2795 0019795 46.1988 314.0860 14.83685434969782 ERBS 1 15354U 84108B 21021.73645595 .00003478 00000-0 65569-4 0 9996 2 15354 57.0038 206.5006 0014808 102.4244 257.8472 15.51316675 1422 SL-8 R/B 1 15483U 85006B 21021.52036834 .00000003 00000-0 10011-4 0 9997 2 15483 74.0461 102.8308 0017635 121.7962 249.6622 14.36348322884970 COSMOS 1626 1 15494U 85009A 21021.40940303 .00000937 00000-0 36683-4 0 9993 2 15494 82.4789 12.5956 0003796 110.8100 249.3544 15.24572949968582 SL-12 R/B(2) 1 15772U 85042D 21021.89144911 -.00000046 00000-0 87261-6 0 9995 2 15772 71.1086 81.5412 0034694 162.7793 10.4982 14.21283649848249 SL-14 R/B 1 15945U 85069B 21021.84785963 .00000075 00000-0 61267-5 0 9997 2 15945 82.5292 341.7107 0018130 262.6915 97.2240 14.84062271894922 SL-3 R/B 1 16111U 85090B 21021.50525205 .00011949 00000-0 10646-3 0 9996 2 16111 97.4819 214.2611 0010142 169.2860 190.8619 15.68566949949158 SL-16 R/B 1 16182U 85097B 21021.54836174 -.00000313 00000-0 -13375-3 0 9992 2 16182 71.0019 122.6183 0009534 240.3305 130.4038 14.16251799822319 SL-14 R/B 1 16496U 86006B 21021.79454584 .00000069 00000-0 53677-5 0 9996 2 16496 82.5235 217.4768 0020457 53.1340 317.5296 14.84165930871237 COSMOS 1743 1 16719U 86034A 21021.84923187 .00000410 00000-0 19665-4 0 9999 2 16719 82.5535 143.3413 0013043 52.7293 67.0965 15.15889572894513 SL-14 R/B 1 16792U 86046B 21021.79537916 .00000073 00000-0 60712-5 0 9993 2 16792 82.4813 45.2883 0022683 285.2610 248.2428 14.83268391848654 SL-14 R/B 1 16882U 86055B 21021.58566031 .00000058 00000-0 41036-5 0 9991 2 16882 82.5207 82.9641 0020759 38.4958 106.4403 14.83252790841621 EGS (AJISAI) 1 16908U 86061A 21021.78861441 -.00000106 00000-0 -62936-4 0 9999 2 16908 50.0099 92.3378 0011423 199.3463 279.5443 12.44493115234925 COSMOS 1812 1 17295U 87003A 21021.82097310 .00000842 00000-0 42488-4 0 9992 2 17295 82.5151 290.3163 0001735 250.7393 109.3652 15.15806909857782 SL-14 R/B 1 17567U 87024B 21021.78736944 .00000072 00000-0 58085-5 0 9991 2 17567 82.5276 48.5068 0018412 333.3420 26.6847 14.83788608810312 COSMOS 1833 1 17589U 87027A 21021.84759602 -.00000286 00000-0 -12773-3 0 9992 2 17589 70.9201 302.0990 0015714 147.4727 212.7366 14.12902973745768 SL-16 R/B 1 17590U 87027B 21021.85265573 .00000008 00000-0 27880-4 0 9990 2 17590 71.0018 261.4706 0002842 106.9071 253.2364 14.16792288750091 SL-14 R/B 1 17912U 87038B 21021.72926569 .00000065 00000-0 50938-5 0 9999 2 17912 82.5008 256.8515 0019229 218.2390 141.7463 14.83063995801479 COSMOS 1844 1 17973U 87041A 21021.72677949 -.00000028 00000-0 10915-4 0 9995 2 17973 70.9005 22.9979 0033244 310.4300 49.3923 14.14120472738773 SL-14 R/B 1 18153U 87055B 21021.82382115 .00000072 00000-0 57604-5 0 9995 2 18153 82.5020 310.1238 0023077 73.6443 286.7307 14.83312078792155 COSMOS 1867 1 18187U 87060A 21021.69543254 -.00000074 00000-0 97872-5 0 9990 2 18187 65.0106 149.9345 0017056 282.4416 77.4759 14.31118770751876 SL-14 R/B 1 18749U 88001B 21021.87208816 .00000076 00000-0 63724-5 0 9992 2 18749 82.5156 152.9589 0017417 300.8453 173.6286 14.83242961764246 COSMOS 1933 1 18958U 88020A 21021.78234846 .00000453 00000-0 30830-4 0 9997 2 18958 82.5297 274.7426 0012576 124.4592 235.7824 15.03842882767895 SL-3 R/B 1 19046U 88032B 21021.79599164 .00000978 00000-0 76312-4 0 9994 2 19046 97.3914 39.0411 0037199 181.7601 178.3500 15.02832437769759 SL-16 R/B 1 19120U 88039B 21021.82392787 -.00000169 00000-0 -57676-4 0 9996 2 19120 71.0150 67.0982 0023178 327.0779 32.8901 14.19217463692634 COSMOS 1953 1 19210U 88050A 21021.43952301 .00000639 00000-0 41563-4 0 9998 2 19210 82.5166 198.2088 0014205 94.0485 266.2367 15.06150136754478 SL-8 R/B 1 19257U 88053B 21021.82508183 -.00000007 00000-0 65460-5 0 9993 2 19257 74.0504 319.4504 0021678 245.6680 174.7736 14.37499313707381 COSMOS 1975 1 19573U 88093A 21021.83923717 .00000911 00000-0 61997-4 0 9996 2 19573 82.5215 152.6361 0015006 134.9388 225.3059 15.05049978757498 SL-14 R/B 1 19574U 88093B 21021.39786241 .00000071 00000-0 56891-5 0 9992 2 19574 82.5329 356.2414 0023149 102.4471 57.2645 14.83353780723171 SL-16 R/B 1 19650U 88102B 21021.73127598 -.00000260 00000-0 -10782-3 0 9999 2 19650 71.0009 130.9170 0015338 333.2411 26.7918 14.15799741661776 INTERCOSMOS 24 1 20261U 89080A 21021.57616366 .00000064 00000-0 18149-4 0 9999 2 20261 82.6020 239.1134 1202258 304.5402 44.7823 12.56166243431385 SL-14 R/B 1 20262U 89080C 21021.87467599 .00000059 00000-0 87168-5 0 9997 2 20262 82.5945 294.0070 1237818 139.0898 231.0099 12.48954450426252 DELTA 1 R/B 1 20323U 89089B 21021.80517067 .00000008 00000-0 11421-4 0 9995 2 20323 97.1152 139.0929 0070228 263.9181 95.4011 14.48379821624479 DELTA 2 R/B(1) 1 20453U 90008B 21021.88751472 .00001740 00000-0 97778-4 0 9993 2 20453 35.6265 47.8448 0278905 328.8381 29.6058 14.86173566643709 COSMOS 2058 1 20465U 90010A 21021.53395029 .00000237 00000-0 17646-4 0 9999 2 20465 82.4879 63.4885 0015402 180.0133 180.1092 14.98124818660974 SL-14 R/B 1 20466U 90010B 21021.51372234 .00000068 00000-0 56529-5 0 9997 2 20466 82.5012 222.6935 0020110 345.3629 14.7000 14.81407838651012 SL-14 R/B 1 20511U 90018B 21021.84084303 .00000085 00000-0 81034-5 0 9997 2 20511 82.5239 169.7538 0018782 119.4619 351.6475 14.80063539645416 HST 1 20580U 90037B 21021.87188131 .00000491 00000-0 18805-4 0 9997 2 20580 28.4706 314.8957 0002459 283.4921 119.0833 15.09539171488938 SL-16 R/B 1 20625U 90046B 21021.85624918 .00000257 00000-0 15828-3 0 9994 2 20625 70.9988 269.7767 0016477 269.9860 89.9374 14.14664537583509 COSMOS 2084 1 20663U 90055A 21021.79315948 -.00000008 00000-0 17329-4 0 9993 2 20663 62.7944 159.1415 0047574 340.9748 18.9567 14.92178949655937 SL-6 R/B(2) 1 20666U 90055D 21021.54123213 -.00000035 00000-0 15059-4 0 9999 2 20666 62.7859 75.8737 0077961 17.4330 342.9412 14.92423384657311 SL-8 R/B 1 20775U 90078B 21021.80803883 .00001044 00000-0 50011-4 0 9999 2 20775 82.9251 46.4610 0568961 237.7705 116.7132 14.35195938537056 SL-8 R/B 1 21088U 91006B 21021.79569062 .00000018 00000-0 31699-5 0 9997 2 21088 82.9437 122.9038 0021536 237.6491 233.7790 13.77146734506261 OKEAN 3 1 21397U 91039A 21021.87328825 .00000216 00000-0 18225-4 0 9994 2 21397 82.5236 329.0615 0018351 154.0147 206.1998 14.93027310584851 COSMOS 2151 1 21422U 91042A 21021.53261160 .00000195 00000-0 16624-4 0 9995 2 21422 82.4995 75.3194 0013172 219.3706 140.6557 14.92204948583402 SL-14 R/B 1 21423U 91042B 21021.86957949 .00000078 00000-0 73599-5 0 9994 2 21423 82.4946 172.7693 0016124 263.1269 96.8110 14.79813174575967 ERS 1 1 21574U 91050A 21021.86805612 .00000031 00000-0 25257-4 0 9995 2 21574 98.6283 341.6243 0033063 359.6146 0.5009 14.37778299546500 ARIANE 40 R/B 1 21610U 91050F 21021.80654787 -.00000016 00000-0 87493-5 0 9990 2 21610 98.4419 94.5944 0002578 343.7821 125.3080 14.40931158549140 INTERCOSMOS 25 1 21819U 91086A 21021.75237485 -.00000702 00000-0 -14780-3 0 9996 2 21819 82.5825 355.5455 1516888 166.7623 197.8422 12.05157705270581 SL-14 R/B 1 21820U 91086B 21021.84799348 .00000079 00000-0 91734-5 0 9990 2 21820 82.5593 62.8483 1576231 48.1756 324.3535 11.93549657263606 SL-8 R/B 1 21876U 92008B 21021.78460670 -.00000026 00000-0 -41982-4 0 9995 2 21876 82.9251 220.1336 0034167 326.0559 44.3884 13.75668434451896 SL-8 R/B 1 21938U 92020B 21021.73269604 .00000001 00000-0 -15345-4 0 9993 2 21938 82.9305 104.5262 0030485 123.4731 350.0021 13.75293244443678 SL-16 R/B 1 22220U 92076B 21021.86610427 -.00000221 00000-0 -86831-4 0 9999 2 22220 70.9998 171.8094 0010652 64.8712 43.9013 14.16466503456937 SL-16 R/B 1 22285U 92093B 21021.87456032 -.00000087 00000-0 -20299-4 0 9996 2 22285 71.0235 334.2860 0006798 278.6928 81.3425 14.15056252448221 COSMOS 2228 1 22286U 92094A 21021.49660254 .00000190 00000-0 17742-4 0 9991 2 22286 82.5185 214.1080 0022542 77.7833 282.5907 14.88220956496879 SL-16 R/B 1 22566U 93016B 21021.84286185 .00000332 00000-0 19599-3 0 9992 2 22566 71.0066 187.3278 0012369 289.2019 70.7764 14.14972879437222 COSMOS 2242 1 22626U 93024A 21021.69743003 .00000177 00000-0 16486-4 0 9998 2 22626 82.5202 242.1320 0020362 77.2072 283.1419 14.88073071501318 SL-16 R/B 1 22803U 93059B 21021.20732875 -.00000123 00000-0 -37232-4 0 9990 2 22803 70.9910 0.3654 0017677 192.3055 167.7639 14.16829630414147 ARIANE 40 R/B 1 22830U 93061H 21021.73642923 -.00000041 00000-0 16076-5 0 9997 2 22830 98.7364 78.6208 0011565 46.8506 313.3642 14.31464506426055 COSMOS 2278 1 23087U 94023A 21021.73022632 -.00000291 00000-0 -12870-3 0 9994 2 23087 71.0550 131.4170 0009149 350.4819 9.6129 14.13821856380041 SL-16 R/B 1 23088U 94023B 21021.74845723 -.00000044 00000-0 21285-5 0 9997 2 23088 70.9993 42.9344 0005675 264.7929 95.2546 14.14679730381182 SL-16 R/B 1 23343U 94074B 21021.75347800 .00000002 00000-0 75097-5 0 9994 2 23343 97.9698 78.4509 0007353 157.3019 314.7675 14.76858714410630 SL-16 R/B 1 23405U 94077B 21021.60799879 .00000256 00000-0 15617-3 0 9998 2 23405 70.9842 331.7663 0001755 187.5395 172.5702 14.15233643351219 ERS 2 1 23560U 95021A 21021.50305539 .00000789 00000-0 36729-4 0 9994 2 23560 98.5534 211.1614 0004134 135.9686 224.1877 15.23611060375313 ARIANE 40+ R/B 1 23561U 95021B 21021.89155256 .00000021 00000-0 22085-4 0 9995 2 23561 98.6972 70.1124 0006306 334.0447 198.8708 14.38005139349961 SL-16 R/B 1 23705U 95058B 21021.79375409 -.00000108 00000-0 -31041-4 0 9998 2 23705 71.0230 150.8447 0010047 94.7066 265.5205 14.15148900302862 SL-16 R/B 1 24298U 96051B 21021.84548077 -.00000216 00000-0 -90458-4 0 9996 2 24298 70.8359 170.1230 0014241 20.5700 339.5990 14.12474356257198 ORBVIEW 2 (SEASTAR) 1 24883U 97037A 21021.86140698 .00000006 00000-0 18122-4 0 9993 2 24883 98.6272 140.2894 0002694 157.4945 202.6358 14.33591775240002 SL-16 R/B 1 25400U 98043G 21021.80229937 -.00000017 00000-0 11088-4 0 9992 2 25400 98.6287 319.8994 0010912 61.7817 298.4463 14.25468727172124 SL-16 R/B 1 25407U 98045B 21021.86433317 -.00000246 00000-0 -10068-3 0 9997 2 25407 71.0110 158.5828 0007849 342.7338 17.3517 14.15832233161997 ISS (ZARYA) 1 25544U 98067A 21022.10125797 -.00074175 00000-0 -13588-2 0 9992 2 25544 51.6438 345.2668 0002293 284.3310 177.3312 15.48837582265952 SL-8 R/B 1 25723U 99022C 21021.88455859 .00055560 00000-0 18777-3 0 9993 2 25723 48.4067 234.6420 0003587 256.5167 103.5392 15.89297126212194 CZ-4B R/B 1 25732U 99025C 21021.86034241 -.00000036 00000-0 47406-5 0 9994 2 25732 98.9221 57.8455 0036516 308.9125 224.2553 14.17687129122762 OKEAN O 1 25860U 99039A 21021.83432069 .00000021 00000-0 10614-4 0 9991 2 25860 98.1988 50.4477 0000785 104.9455 255.1841 14.76706605157743 SL-16 R/B 1 25861U 99039B 21021.29615130 .00000020 00000-0 10328-4 0 9995 2 25861 98.2093 33.7685 0015728 173.6338 197.2398 14.78615966159817 TERRA 1 25994U 99068A 21021.83516383 .00000034 00000-0 17471-4 0 9995 2 25994 98.1925 98.8401 0001332 98.3161 13.7243 14.57121421121992 ENVISAT 1 27386U 02009A 21021.79312870 .00000021 00000-0 20407-4 0 9990 2 27386 98.1419 23.3980 0001192 86.7625 86.8238 14.38009405989928 IDEFIX/ARIANE 42P 1 27422U 02021B 21021.80013775 -.00000001 00000-0 16006-4 0 9998 2 27422 98.3833 340.1647 0011388 310.1240 49.8944 14.29306083976354 AQUA 1 27424U 02022A 21021.70505939 .00000089 00000-0 29855-4 0 9999 2 27424 98.2153 325.1435 0002313 55.4552 350.9023 14.57117553995652 CZ-4B R/B 1 27432U 02024C 21021.78316513 -.00000024 00000-0 11768-4 0 9990 2 27432 99.0900 33.6993 0049503 280.7456 253.2547 14.14103096964504 ADEOS 2 1 27597U 02056A 21021.81061653 .00000024 00000-0 27405-4 0 9997 2 27597 98.5482 330.1948 0002030 77.6048 282.5360 14.27480644942969 H-2A R/B 1 27601U 02056E 21021.83439199 -.00000100 00000-0 -21230-4 0 9996 2 27601 98.2042 52.1018 0071826 347.9291 185.0361 14.31993702945943 CZ-4B R/B 1 28059U 03049C 21021.74691280 -.00000019 00000-0 72340-5 0 9995 2 28059 98.4910 306.7410 0049807 189.9411 170.0803 14.52631295914527 CZ-2C R/B 1 28222U 04012C 21021.85728495 .00000774 00000-0 49750-4 0 9994 2 28222 97.7081 351.3959 0047041 4.8140 50.3013 15.10663266918969 SL-16 R/B 1 28353U 04021B 21021.83541246 -.00000183 00000-0 -70780-4 0 9997 2 28353 70.9983 201.3135 0005351 338.1842 21.9052 14.14234088858013 CZ-2C R/B 1 28480U 04046B 21021.83819897 -.00000029 00000-0 47631-5 0 9993 2 28480 98.0592 45.6064 0140793 298.5225 236.6409 14.25737047841530 ARIANE 5 R/B 1 28499U 04049H 21021.88589698 .00000030 00000-0 11249-4 0 9990 2 28499 98.0620 130.4795 0090761 287.5964 181.8372 14.80081838868409 CZ-2D R/B 1 28738U 05024B 21021.49080916 .00000328 00000-0 22557-4 0 9990 2 28738 97.3697 42.6720 0012770 144.0146 216.1948 15.12243627854358 ASTRO E2 1 28773U 05025A 21021.42998466 .00001125 00000-0 49639-4 0 9997 2 28773 31.3828 38.8990 0004619 241.8926 118.1255 15.18024740857109 ALOS 1 28931U 06002A 21021.90301659 .00000137 00000-0 35530-4 0 9991 2 28931 97.8690 3.2125 0002098 93.1976 266.9488 14.62788692799631 H-2A R/B 1 28932U 06002B 21021.78846583 .00000651 00000-0 65582-4 0 9999 2 28932 98.3314 30.2760 0087766 328.0929 205.0134 14.92419170813701 ASTRO F (AKARI) 1 28939U 06005A 21021.77716789 .00003732 00000-0 97060-4 0 9991 2 28939 98.2489 27.4386 0088415 279.9936 79.1336 15.35799455814380 RESURS DK-1 1 29228U 06021A 21021.16890168 .00000095 00000-0 14442-4 0 9990 2 29228 69.9365 353.7232 0002907 172.3647 187.7558 15.02631344805425 GENESIS 1 1 29252U 06029A 21021.83016489 .00000441 00000-0 31247-4 0 9992 2 29252 64.5228 307.2016 0024572 341.4813 18.5413 15.18434978801250 CZ-4B R/B 1 29507U 06046C 21021.80589091 .00000331 00000-0 30472-4 0 9992 2 29507 97.7175 48.5913 0046757 147.3456 213.0674 15.00623519778119 CZ-2C R/B 1 31114U 07010B 21021.84207510 .00000040 00000-0 37168-4 0 9994 2 31114 98.2379 225.7889 0059580 351.5597 8.4573 14.19345428713989 SKYMED 1 1 31598U 07023A 21021.80684442 .00000182 00000-0 29380-4 0 9997 2 31598 97.8836 207.7941 0001433 91.4920 268.6470 14.82157347737175 GENESIS 2 1 31789U 07028A 21021.64530814 .00000525 00000-0 36051-4 0 9993 2 31789 64.5068 349.8531 0028951 218.6963 141.2087 15.17571914748285 COSMOS 2428 1 31792U 07029A 21021.85935163 -.00000102 00000-0 -29102-4 0 9999 2 31792 70.8915 174.0886 0005060 118.0647 242.0985 14.12238445699611 SL-16 R/B 1 31793U 07029B 21021.82187126 -.00000025 00000-0 11923-4 0 9990 2 31793 70.9769 147.6472 0002832 277.7739 245.1970 14.14444920700537 KORONAS-FOTON 1 33504U 09003A 21021.68627475 .00000726 00000-0 36189-4 0 9994 2 33504 82.4422 5.6461 0017503 241.8740 118.0724 15.15846221660430 H-2A R/B 1 38341U 12025E 21021.76092677 .00000167 00000-0 27183-4 0 9998 2 38341 98.5181 197.2530 0054364 250.2722 109.2621 14.84151648469745 CUSAT 2/FALCON 9 1 39271U 13055G 21021.83433936 .00004050 00000-0 96506-4 0 9990 2 39271 80.9655 31.6621 0576636 232.2027 122.5622 14.50736786382366 ALOS 2 1 39766U 14029A 21021.76237377 .00000127 00000-0 23932-4 0 9998 2 39766 97.9211 121.2411 0001516 93.3116 266.8261 14.79474197359977 SL-27 R/B 1 40354U 14084B 21021.87791389 .00001040 00000-0 26179-4 0 9995 2 40354 74.7383 296.0734 0036471 12.5254 347.6855 15.40721272341761 ASTRO H 1 41337U 16012A 21021.78475330 .00000290 00000-0 16547-4 0 9999 2 41337 31.0063 65.3659 0012285 68.7971 291.3975 14.98774327270280